Location: Newark
(35.8833°N, 14.5000°E)
Time: 15:01:44
(UTC+00:00)

Vanguard 2 - All Passes

Search period start: 20 November 2019 00:00
Search period end: 30 November 2019 00:00
Orbit: 554 x 2937 km, 32.9° (Epoch: 20 November)

Date Brightness Start Highest point End Pass type
(mag) Time Alt. Az. Time Alt. Az. Time Alt. Az.
20 Nov - 04:25:35 10° SSW 04:36:40 26° SSE 04:44:39 10° E visible
20 Nov - 06:35:14 10° SW 06:46:54 50° SSE 06:53:56 10° E daylight
20 Nov - 08:47:15 10° W 08:56:11 69° S 09:01:35 10° E daylight
20 Nov - 10:58:44 10° W 11:04:32 46° SSW 11:08:39 10° SE daylight
20 Nov - 13:11:06 10° SW 13:11:54 10° SW 13:12:41 10° SSW daylight
21 Nov - 02:38:00 10° SSE 02:43:53 13° SE 02:49:08 10° ESE visible
21 Nov - 04:42:12 10° SSW 04:54:45 34° SSE 05:03:17 10° E visible
21 Nov - 06:53:03 10° WSW 07:04:55 59° SSE 07:11:56 10° E daylight
21 Nov - 09:05:27 10° W 09:14:09 70° S 09:19:26 10° E daylight
21 Nov - 11:16:58 10° W 11:22:18 35° SSW 11:26:13 10° SE daylight
22 Nov - 02:51:58 10° S 03:01:58 19° SSE 03:10:07 10° ESE visible
22 Nov - 04:59:17 10° SW 05:12:48 42° SSE 05:21:36 10° E visible
22 Nov - 07:11:05 10° WSW 07:22:57 66° S 07:29:52 10° E daylight
22 Nov - 09:23:39 10° W 09:32:06 66° S 09:37:16 10° ESE daylight
22 Nov - 11:35:20 10° W 11:39:58 25° SSW 11:43:32 10° SSE daylight
23 Nov - 03:07:36 10° SSW 03:20:00 26° SSE 03:29:33 10° E visible
23 Nov - 05:16:44 10° SW 05:30:52 51° SSE 05:39:45 10° E visible
23 Nov - 07:29:15 10° WSW 07:40:58 72° S 07:47:47 10° E daylight
23 Nov - 09:41:53 10° W 09:50:00 58° SSW 09:55:02 10° ESE daylight
23 Nov - 11:54:02 10° WSW 11:57:32 17° SW 12:00:26 10° S daylight
24 Nov - 01:22:04 10° SSE 01:26:56 12° SE 01:31:30 10° ESE visible
24 Nov - 03:23:59 10° SSW 03:38:02 34° SSE 03:48:22 10° E visible
24 Nov - 05:34:28 10° WSW 05:48:55 59° SSE 05:57:47 10° E daylight
24 Nov - 07:47:29 10° W 07:59:00 74° S 08:05:40 10° E daylight
24 Nov - 10:00:07 10° W 10:07:49 48° SSW 10:12:43 10° SE daylight
24 Nov - 12:14:02 10° SW 12:15:01 10° SW 12:15:57 10° SSW daylight
25 Nov - 01:34:56 10° S 01:44:54 18° SE 01:53:42 10° ESE visible
25 Nov - 03:40:53 10° SW 03:56:03 42° SSE 04:06:48 10° E visible
25 Nov - 05:52:26 10° WSW 06:06:59 67° SSE 06:15:46 10° E daylight
25 Nov - 08:05:45 10° W 08:17:00 73° S 08:23:32 10° ESE daylight
25 Nov - 10:18:26 10° W 10:25:31 37° SSW 10:30:12 10° SE daylight
26 Nov - 01:50:08 10° S 02:02:49 25° SE 02:13:36 10° E visible
26 Nov - 03:58:10 10° SW 04:14:06 50° SSE 04:25:02 10° E visible
26 Nov - 06:10:33 10° WSW 06:25:04 73° S 06:33:42 10° E daylight
26 Nov - 08:24:02 10° W 08:34:58 68° SSW 08:41:21 10° ESE daylight
26 Nov - 10:36:54 10° W 10:43:06 27° SW 10:47:28 10° SSE daylight
27 Nov - 02:06:15 10° SSW 02:20:44 32° SSE 02:32:40 10° E visible
27 Nov - 04:15:46 10° SW 04:32:09 59° SSE 04:43:09 10° E visible
27 Nov - 06:28:48 10° W 06:43:09 76° S 06:51:38 10° E daylight
27 Nov - 08:42:20 10° W 08:52:52 60° SSW 08:59:05 10° ESE daylight
27 Nov - 10:55:41 10° W 11:00:34 19° SW 11:04:17 10° S daylight
28 Nov - 00:19:06 10° SSE 00:27:36 15° SE 00:35:46 10° ESE visible
28 Nov - 02:22:55 10° SSW 02:38:40 40° SSE 02:51:17 10° E visible
28 Nov - 04:33:36 10° WSW 04:50:14 66° SSE 05:01:10 10° E visible
28 Nov - 06:47:05 10° W 07:01:14 77° S 07:09:32 10° E daylight
28 Nov - 09:00:39 10° W 09:10:40 50° SSW 09:16:43 10° SE daylight
28 Nov - 11:15:20 10° WSW 11:17:56 12° SW 11:20:10 10° SSW daylight
29 Nov - 00:33:35 10° S 00:45:22 22° SE 00:56:29 10° E visible
29 Nov - 02:40:01 10° SW 02:56:38 49° SSE 03:09:39 10° E visible
29 Nov - 04:51:38 10° WSW 05:08:21 73° S 05:19:10 10° E visible
29 Nov - 07:05:25 10° W 07:19:17 74° S 07:27:24 10° ESE daylight
29 Nov - 09:19:02 10° W 09:28:20 40° SSW 09:34:10 10° SE daylight
